C4984 Weather Reports


Display with metric or nautical units.
time (UTC)temp
F
wind
direction
speed
MPH
gust
MPH
rain 1hr
in
rain 24hr
in
rain mn
in
humidity
%
barometer
mb
20260831010028 76 208 0.0 0.0 0.00 0.00 0.00 90 1015.1
20260831005042 76 208 0.0 0.0 0.00 0.00 0.00 89 1015.1
20260831004059 77 208 0.0 0.0 0.00 0.00 0.00 88 1015.1
20260831003036 77 208 0.0 0.0 0.00 0.00 0.00 88 1015.1
20260831002056 78 208 0.0 0.0 0.00 0.00 0.00 87 1014.7
20260831001022 79 208 0.0 0.0 0.00 0.00 0.00 85 1014.6
20260831000029 80 198 0.0 0.0 0.00 0.00 0.00 84 1014.6
20260830235034 81 198 0.0 0.0 0.00 0.00 0.00 82 1014.6
20260830234056 82 198 0.0 0.0 0.00 0.00 0.00 80 1014.6
20260830233055 82 198 0.0 0.0 0.00 0.00 0.00 79 1014.6
20260830232044 83 198 0.0 0.0 0.00 0.00 0.00 78 1014.8
20260830231047 84 208 0.0 0.0 0.00 0.00 0.00 76 1014.8
20260830230041 85 207 0.0 1.0 0.00 0.00 0.00 73 1014.8
20260830225044 86 198 0.0 0.0 0.00 0.00 0.00 71 1014.9
20260830224043 87 198 0.0 0.0 0.00 0.00 0.00 70 1014.6
20260830223028 87 198 0.0 1.0 0.00 0.00 0.00 69 1014.6
20260830220848 86 146 0.0 2.0 0.00 0.00 0.00 70 1014.7
20260830215908 86 219 0.0 2.0 0.00 0.00 0.00 68 1014.8
20260830213759 87 184 0.0 0.0 0.00 0.00 0.00 69 1015.0
20260830212747 87 184 0.0 0.0 0.00 0.00 0.00 70 1015.0
20260830211757 87 126 0.0 1.0 0.00 0.00 0.00 67 1015.0
20260830210811 86 126 0.0 1.0 0.00 0.00 0.00 69 1015.0
20260830204723 86 188 0.0 3.0 0.00 0.00 0.00 67 1015.0
20260830203745 87 167 0.0 3.0 0.00 0.00 0.00 65 1015.1
20260830202759 87 15 0.0 3.0 0.00 0.00 0.00 65 1015.4
20260830201802 86 338 0.0 3.0 0.00 0.00 0.00 70 1015.4
20260830200734 85 140 0.0 4.0 0.00 0.00 0.00 70 1015.6
20260830195729 85 226 1.0 4.0 0.00 0.00 0.00 71 1015.6
20260830192414 85 37 0.0 3.0 0.00 0.00 0.00 71 1016.1
20260830190217 85 191 1.0 4.0 0.00 0.00 0.00 71 1016.1
20260830185242 85 98 0.0 4.0 0.00 0.00 0.00 71 1016.2
20260830183142 85 335 0.0 3.0 0.00 0.00 0.00 72 1016.6
20260830181045 83 47 0.0 3.0 0.00 0.00 0.00 75 1016.7
20260830180013 84 115 0.0 3.0 0.00 0.00 0.00 74 1016.7
20260830174944 83 254 0.0 1.0 0.00 0.00 0.00 76 1016.7
20260830173922 82 198 0.0 3.0 0.00 0.00 0.00 79 1016.8
20260830172849 82 179 0.0 2.0 0.00 0.00 0.00 78 1016.9
20260830171853 82 179 0.0 2.0 0.00 0.00 0.00 77 1016.9
20260830170834 82 15 0.0 3.0 0.00 0.00 0.00 80 1017.2
20260830165855 81 174 0.0 3.0 0.00 0.00 0.00 80 1017.3
20260830164831 81 353 0.0 3.0 0.00 0.00 0.00 80 1017.3
20260830163842 81 111 0.0 3.0 0.00 0.00 0.00 80 1017.3
20260830162849 81 134 0.0 3.0 0.00 0.00 0.00 81 1017.5
20260830161900 80 130 0.0 3.0 0.00 0.00 0.00 85 1017.5
20260830160907 79 205 0.0 3.0 0.00 0.00 0.00 82 1017.7
20260830155930 79 124 0.0 2.0 0.00 0.00 0.00 83 1017.7
20260830154924 80 216 0.0 1.0 0.00 0.00 0.00 84 1017.7
20260830153918 79 231 0.0 0.0 0.00 0.00 0.00 86 1017.8
20260830151828 77 145 0.0 0.0 0.00 0.00 0.00 89 1017.8
20260830150826 76 264 0.0 0.0 0.00 0.00 0.00 92 1017.9
20260830143518 74 75 0.0 0.0 0.00 0.00 0.00 95 1018.2
20260830142453 74 75 0.0 0.0 0.00 0.00 0.00 97 1018.4
20260830141448 74 75 0.0 0.0 0.00 0.00 0.00 98 1018.4
20260830134127 72 67 0.0 0.0 0.00 0.00 0.00 99 1018.3
20260830130919 71 30 0.0 0.0 0.00 0.00 0.00 99 1018.2
20260830125939 71 30 0.0 0.0 0.00 0.00 0.00 99 1018.2
20260830124906 71 30 0.0 0.0 0.00 0.00 0.00 99 1018.2
20260830123913 71 30 0.0 0.0 0.00 0.00 0.00 99 1018.0
20260830122916 71 30 0.0 0.0 0.00 0.00 0.00 99 1018.0
20260830121858 70 30 0.0 0.0 0.00 0.00 0.00 99 1018.0
20260830120837 70 30 0.0 0.0 0.00 0.00 0.00 99 1017.9
20260830115818 70 30 0.0 0.0 0.00 0.00 0.00 99 1017.8
20260830113715 70 21 0.0 0.0 0.00 0.00 0.00 99 1017.9
20260830112719 70 21 0.0 0.0 0.00 0.00 0.00 99 1017.9
20260830111732 70 21 0.0 0.0 0.00 0.00 0.00 99 1017.9
20260830110706 70 21 0.0 0.0 0.00 0.00 0.00 99 1017.7
20260830104534 70 21 0.0 0.0 0.00 0.00 0.00 99 1017.4
20260830103531 70 21 0.0 0.0 0.00 0.00 0.00 99 1017.3
20260830102512 70 21 0.0 0.0 0.00 0.00 0.00 99 1017.0
20260830101520 71 21 0.0 0.0 0.00 0.00 0.00 99 1017.0
20260830100503 71 21 0.0 0.0 0.00 0.00 0.00 99 1017.0
20260830095506 71 21 0.0 0.0 0.00 0.00 0.00 99 1016.8
20260830094456 71 21 0.0 0.0 0.00 0.00 0.00 99 1016.8
20260830093433 71 21 0.0 0.0 0.00 0.00 0.00 99 1016.8
20260830091248 71 21 0.0 0.0 0.00 0.00 0.00 99 1016.9
20260830090238 71 21 0.0 0.0 0.00 0.00 0.00 99 1016.9
20260830085227 71 21 0.0 0.0 0.00 0.00 0.00 99 1017.0
20260830084245 71 21 0.0 0.0 0.00 0.00 0.00 99 1017.0
20260830083252 71 21 0.0 0.0 0.00 0.00 0.00 99 1017.0
20260830082247 70 21 0.0 0.0 0.00 0.00 0.00 99 1017.0
20260830081237 70 21 0.0 0.0 0.00 0.00 0.00 98 1017.1
20260830080237 70 21 0.0 0.0 0.00 0.00 0.00 98 1017.1
20260830075236 70 21 0.0 0.0 0.00 0.00 0.00 98 1017.1
20260830074238 70 21 0.0 0.0 0.00 0.00 0.00 98 1017.0
20260830072107 70 21 0.0 0.0 0.00 0.00 0.00 98 1017.0
20260830071052 70 21 0.0 0.0 0.00 0.00 0.00 98 1017.0
20260830070101 70 21 0.0 0.0 0.00 0.00 0.00 98 1017.0
20260830063944 70 21 0.0 0.0 0.00 0.00 0.00 98 1017.3
20260830062927 70 21 0.0 0.0 0.00 0.00 0.00 98 1017.3
20260830060813 71 21 0.0 0.0 0.00 0.00 0.00 98 1017.3
20260830055827 71 21 0.0 0.0 0.00 0.00 0.00 97 1017.4
20260830054753 71 21 0.0 0.0 0.00 0.00 0.00 97 1017.4
20260830053721 71 21 0.0 0.0 0.00 0.00 0.00 97 1017.7
20260830052724 71 21 0.0 0.0 0.00 0.00 0.00 97 1017.7
20260830050551 71 21 0.0 0.0 0.00 0.00 0.00 97 1017.7
20260830044504 72 21 0.0 0.0 0.00 0.00 0.00 97 1017.7
20260830043520 72 21 0.0 0.0 0.00 0.00 0.00 97 1017.7
20260830042527 72 21 0.0 0.0 0.00 0.00 0.00 97 1017.8
20260830041512 72 21 0.0 0.0 0.00 0.00 0.00 97 1017.8
20260830040524 72 21 0.0 0.0 0.00 0.00 0.00 96 1017.8
20260830035456 72 21 0.0 0.0 0.00 0.00 0.00 96 1017.8
20260830034447 72 21 0.0 0.0 0.00 0.00 0.00 96 1017.8
20260830033444 72 21 0.0 0.0 0.00 0.00 0.00 96 1017.7
20260830032418 73 21 0.0 0.0 0.00 0.00 0.00 96 1017.4
20260830031405 73 21 0.0 0.0 0.00 0.00 0.00 96 1017.3
20260830030356 73 21 0.0 0.0 0.00 0.00 0.00 96 1017.3
20260830023031 73 21 0.0 0.0 0.00 0.00 0.00 95 1017.2
20260830022040 73 21 0.0 0.0 0.00 0.00 0.00 95 1017.1
20260830021054 74 21 0.0 0.0 0.00 0.00 0.00 94 1016.9
20260830020049 74 21 0.0 0.0 0.00 0.00 0.00 94 1016.9
20260830015044 74 21 0.0 0.0 0.00 0.00 0.00 93 1016.9
20260830012839 75 21 0.0 0.0 0.00 0.00 0.00 93 1016.9
20260830011856 75 21 0.0 0.0 0.00 0.00 0.00 92 1016.9
20260830010823 75 21 0.0 0.0 0.00 0.00 0.00 92 1016.8